Terminal Aerodrome Forecast
Issued by NWS

Home | Current Version | Previous Version | Text Only | Print | Product List | Glossary On
Versions: 1 2 3 4 5 6 7 8 9 10 11 12 13 14 15 16 17 18 19 20
639
FTUS41 KGYX 181743
TAFRKD
TAF
KRKD 181743Z 1818/1918 09005KT 5SM -RA BR BKN045 OVC060
      TEMPO 1818/1822 1 1/2SM RA BR BKN015 OVC040
     FM182200 10006KT 2SM -RA BR BKN015 OVC030
     FM190200 12009KT 1SM SHRA BR OVC003
     FM190600 18009KT 1/2SM FG OVC001
     FM191500 13006KT 3SM BR BKN008 OVC012
      AMD LTD TO CLD VIS AND WIND=

USA.gov is the U.S. government's official web portal to all federal, state and local government web resources and services.